Regional Weather Roundup
Issued by NWS

Home | Current Version | Previous Version | Text Only | Print | Product List | Glossary Off
Versions: 1 2 3 4 5 6 7 8 9 10 11 12 13 14 15 16 17 18 19 20 21 22 23 24 25 26 27 28 29 30 31 32 33 34 35 36 37 38 39 40 41 42 43 44 45 46 47 48 49 50

000
ASUS44 KMEG 010410
RWRTN
TENNESSEE HOURLY STATE WEATHER ROUNDUP
NATIONAL WEATHER SERVICE MEMPHIS TN
1100 PM CDT MON AUG 31 2015

TNZ002-004-019-021-049-052-054-088>092-010500-
WEST TENNESSEE

CITY           SKY/WX    TMP DP  RH WIND       PRES   REMARKS
MEMPHIS INTL   PTCLDY    80  68  66 SE5       30.07S
NWS MEMPHIS      N/A     77 N/A N/A MISG        N/A
JACKSON        PTCLDY    69  67  93 CALM      30.09R FOG
DYERSBURG      CLEAR     72  70  94 CALM      30.08S
UNION CITY     CLEAR    N/A N/A N/A CALM      30.07S
PARIS          CLEAR     66  64  94 CALM      30.10S
LEXINGTON      CLEAR     70  68  94 CALM      30.09S
$$

TNZ008-025-027-028-033-062-065-066-010500-
NORTH MIDDLE TENNESSEE

CITY           SKY/WX    TMP DP  RH WIND       PRES   REMARKS
NASHVILLE      CLEAR     73  65  75 S3        30.11S
CLARKSVILLE    PTCLDY    70  66  87 CALM      30.10R
SMYRNA         CLEAR     69  67  93 CALM      30.12R
COOKEVILLE     CLEAR     68  66  94 CALM      30.13S
CROSSVILLE     CLEAR     69  64  84 CALM      30.18S
$$

TNZ061-075-076-078-094-096-097-010500-
SOUTH MIDDLE TENNESSEE

CITY           SKY/WX    TMP DP  RH WIND       PRES   REMARKS
FAYETTEVILLE     N/A     70  66  88 CALM      30.13R
TULLAHOMA      CLEAR     68  66  94 CALM      30.15R
WINCHESTER     CLEAR     68  66  94 CALM      30.14S
MCMINNVILLE    MOCLDY    68  68 100 CALM      30.14S VSB 1/2
COLUMBIA       CLEAR     70  70 100 CALM      30.10S
SHELBYVILLE    CLEAR     70  70 100 CALM      30.13S
$$

TNZ017-018-042-046-047-010500-
NORTHEAST TENNESSEE

CITY           SKY/WX    TMP DP  RH WIND       PRES   REMARKS
TRI CITIES     PTCLDY    66  64  93 CALM      30.15R
ELIZABETHTON   CLEAR     66  63  88 CALM      30.17R
$$

TNZ012-013-036-069-073-074-010500-
CENTRAL EAST TENNESSEE

CITY           SKY/WX    TMP DP  RH WIND       PRES   REMARKS
KNOXVILLE      PTCLDY    71  68  90 CALM      30.12R
OAK RIDGE      CLEAR     71  67  87 CALM      30.14R
GATLINBURG     CLEAR     66  63  88 CALM      30.13R
MORRISTOWN     CLEAR     70  64  83 CALM      30.15S
$$

TNZ083-085-099-010500-
SOUTHEAST TENNESSEE

CITY           SKY/WX    TMP DP  RH WIND       PRES   REMARKS
CHATTANOOGA    CLEAR     72  67  84 CALM      30.12R
$$

SKY/WX REPORTED AS FAIR MEANS FEW OR NO CLOUDS BELOW
12 THOUSAND FEET.



USA.gov is the U.S. government's official web portal to all federal, state and local government web resources and services.